Time,TemperatureF,DewpointF,PressureIn,WindDirection,WindDirectionDegrees,WindSpeedMPH,WindSpeedGustMPH,Humidity,HourlyPrecipIn,Conditions,Clouds,dailyrainin,SolarRadiationWatts/m^2,SoftwareType,DateUTC
2013-07-08 00:44:00,55.0,46.0,-100.00,SW,221,1.0,2.0,71,0.00,,,0.00,0.000000,,2013-07-08 07:44:00,
2013-07-08 00:53:00,55.0,46.0,-100.00,SW,221,1.0,2.0,71,0.00,,,0.00,0.000000,,2013-07-08 07:53:00,
2013-07-08 01:42:00,54.0,47.0,-100.00,NNE,12,0.0,2.0,77,0.00,,,0.00,0.000000,,2013-07-08 08:42:00,
2013-07-08 01:53:00,54.0,47.0,-100.00,NNE,12,0.0,2.0,77,0.00,,,0.00,0.000000,,2013-07-08 08:53:00,
2013-07-08 02:01:00,54.0,47.0,-100.00,NNE,12,0.0,2.0,77,0.00,,,0.00,0.000000,,2013-07-08 09:01:00,
2013-07-08 02:11:00,54.0,47.0,-100.00,NNE,12,0.0,2.0,77,0.00,,,0.00,0.000000,,2013-07-08 09:11:00,
2013-07-08 02:43:00,53.0,46.0,-100.00,ENE,69,0.0,3.0,77,0.00,,,0.00,0.000000,,2013-07-08 09:43:00,
2013-07-08 02:53:00,53.0,46.0,-100.00,ENE,69,0.0,3.0,77,0.00,,,0.00,0.000000,,2013-07-08 09:53:00,
2013-07-08 03:01:00,53.0,46.0,-100.00,ENE,69,0.0,3.0,77,0.00,,,0.00,0.000000,,2013-07-08 10:01:00,
2013-07-08 03:11:00,53.0,46.0,-100.00,ENE,69,0.0,3.0,77,0.00,,,0.00,0.000000,,2013-07-08 10:11:00,
2013-07-08 06:53:00,48.0,44.0,-100.00,North,6,0.0,2.0,86,-99.99,,,0.00,33.000000,,2013-07-08 13:53:00,
2013-07-08 07:01:00,48.0,44.0,-100.00,North,6,0.0,2.0,86,-99.99,,,0.00,33.000000,,2013-07-08 14:01:00,
2013-07-08 07:43:00,66.0,46.0,-100.00,SW,219,2.0,4.0,48,0.00,,,0.00,206.000000,,2013-07-08 14:43:00,
2013-07-08 07:53:00,66.0,46.0,-100.00,SW,219,2.0,4.0,48,0.00,,,0.00,206.000000,,2013-07-08 14:53:00,
2013-07-08 08:01:00,66.0,46.0,-100.00,SW,219,2.0,4.0,48,0.00,,,0.00,206.000000,,2013-07-08 15:01:00,
2013-07-08 08:11:00,66.0,46.0,-100.00,SW,219,2.0,4.0,48,0.00,,,0.00,206.000000,,2013-07-08 15:11:00,
2013-07-08 08:43:00,77.0,48.0,-100.00,SSE,149,4.0,8.0,36,0.00,,,0.00,437.000000,,2013-07-08 15:43:00,
2013-07-08 08:53:00,77.0,48.0,-100.00,SSE,149,4.0,8.0,36,0.00,,,0.00,437.000000,,2013-07-08 15:53:00,
2013-07-08 09:01:00,77.0,48.0,-100.00,SSE,149,4.0,8.0,36,0.00,,,0.00,437.000000,,2013-07-08 16:01:00,
2013-07-08 09:11:00,77.0,48.0,-100.00,SSE,149,4.0,8.0,36,0.00,,,0.00,437.000000,,2013-07-08 16:11:00,
2013-07-08 09:43:00,81.0,43.0,-100.00,SSE,153,6.0,15.0,26,0.00,,,0.00,633.000000,,2013-07-08 16:43:00,
2013-07-08 09:57:00,81.0,43.0,-100.00,SSE,153,6.0,15.0,26,0.00,,,0.00,633.000000,,2013-07-08 16:57:00,
2013-07-08 10:03:00,81.0,43.0,-100.00,SSE,153,6.0,15.0,26,0.00,,,0.00,633.000000,,2013-07-08 17:03:00,
2013-07-08 10:48:00,84.0,37.0,-100.00,SSW,212,6.0,17.0,19,0.00,,,0.00,799.000000,,2013-07-08 17:48:00,
2013-07-08 10:54:00,84.0,37.0,-100.00,SSW,212,6.0,17.0,19,0.00,,,0.00,799.000000,,2013-07-08 17:54:00,
2013-07-08 11:02:00,84.0,37.0,-100.00,SSW,212,6.0,17.0,19,0.00,,,0.00,799.000000,,2013-07-08 18:02:00,
2013-07-08 11:55:00,86.0,38.0,-100.00,WSW,249,9.0,17.0,18,0.00,,,0.00,964.000000,,2013-07-08 18:55:00,
2013-07-08 12:00:00,86.0,38.0,-100.00,WSW,249,9.0,17.0,18,0.00,,,0.00,964.000000,,2013-07-08 19:00:00,
2013-07-08 13:04:00,85.0,37.0,-100.00,SW,224,10.0,24.0,18,0.00,,,0.00,754.000000,,2013-07-08 20:04:00,
2013-07-08 13:14:00,85.0,37.0,-100.00,SW,224,10.0,24.0,18,0.00,,,0.00,754.000000,,2013-07-08 20:14:00,
2013-07-08 13:54:00,85.0,35.0,-100.00,SW,233,10.0,17.0,17,0.00,,,0.00,899.000000,,2013-07-08 20:54:00,
2013-07-08 14:04:00,85.0,35.0,-100.00,SW,233,10.0,17.0,17,0.00,,,0.00,899.000000,,2013-07-08 21:04:00,
2013-07-08 14:14:00,85.0,35.0,-100.00,SW,233,10.0,17.0,17,0.00,,,0.00,899.000000,,2013-07-08 21:14:00,
2013-07-08 15:05:00,89.0,35.0,-100.00,WSW,243,8.0,17.0,15,0.00,,,0.00,712.000000,,2013-07-08 22:05:00,
2013-07-08 15:58:00,87.0,37.0,-100.00,WSW,248,11.0,27.0,17,0.00,,,0.00,775.000000,,2013-07-08 22:58:00,
2013-07-08 16:13:00,87.0,37.0,-100.00,WSW,248,11.0,27.0,17,0.00,,,0.00,775.000000,,2013-07-08 23:13:00,
2013-07-08 16:58:00,89.0,37.0,-100.00,West,262,8.0,21.0,16,0.00,,,0.00,741.000000,,2013-07-08 23:58:00,
2013-07-08 17:14:00,89.0,37.0,-100.00,West,262,8.0,21.0,16,0.00,,,0.00,741.000000,,2013-07-09 00:14:00,
2013-07-08 18:05:00,86.0,38.0,-100.00,WSW,255,10.0,19.0,18,0.00,,,0.00,603.000000,,2013-07-09 01:05:00,
2013-07-08 18:14:00,86.0,38.0,-100.00,WSW,255,10.0,19.0,18,0.00,,,0.00,603.000000,,2013-07-09 01:14:00,
2013-07-08 18:16:00,-999.0,-99.9,-100.00,West,266,10.0,18.0,19,0.00,,,0.00,357.000000,,2013-07-09 01:16:00,
2013-07-08 18:59:00,85.0,38.0,-100.00,West,266,10.0,18.0,19,0.00,,,0.00,357.000000,,2013-07-09 01:59:00,
2013-07-08 20:14:00,82.0,37.0,-100.00,West,281,7.0,15.0,20,0.00,,,0.00,98.000000,,2013-07-09 03:14:00,
2013-07-08 21:02:00,78.0,38.0,-100.00,WNW,302,5.0,10.0,24,0.00,,,0.00,9.000000,,2013-07-09 04:02:00,
2013-07-08 21:11:00,78.0,38.0,-100.00,WNW,302,5.0,10.0,24,0.00,,,0.00,9.000000,,2013-07-09 04:11:00,
2013-07-08 21:43:00,72.0,40.0,-100.00,West,259,4.0,7.0,31,0.00,,,0.00,0.000000,,2013-07-09 04:43:00,
2013-07-08 21:53:00,72.0,40.0,-100.00,West,259,4.0,7.0,31,0.00,,,0.00,0.000000,,2013-07-09 04:53:00,
2013-07-08 22:02:00,72.0,40.0,-100.00,West,259,4.0,7.0,31,0.00,,,0.00,0.000000,,2013-07-09 05:02:00,
2013-07-08 22:11:00,72.0,40.0,-100.00,West,259,4.0,7.0,31,0.00,,,0.00,0.000000,,2013-07-09 05:11:00,
2013-07-08 22:42:00,70.0,40.0,-100.00,NE,40,3.0,8.0,34,0.00,,,0.00,0.000000,,2013-07-09 05:42:00,
2013-07-08 22:52:00,70.0,40.0,-100.00,NE,40,3.0,8.0,34,0.00,,,0.00,0.000000,,2013-07-09 05:52:00,
2013-07-08 23:01:00,70.0,40.0,-100.00,NE,40,3.0,8.0,34,0.00,,,0.00,0.000000,,2013-07-09 06:01:00,
2013-07-08 23:11:00,70.0,40.0,-100.00,NE,40,3.0,8.0,34,0.00,,,0.00,0.000000,,2013-07-09 06:11:00,